Clovis, NM

2:10 AM MST on January 23, 2018 (GMT -0700)
Clovis Municipal

Weather History for KCVN - April, 2013

Change the Weather History Date:

Monday, April 1, 2013

  Actual Average Record
Temperature  
Mean Temperature 58 °F -  
Max Temperature 78 °F 66 °F 87 °F (1932)
Min Temperature 37 °F 36 °F 15 °F (1936)
Degree Days  
Heating Degree Days 8    
Growing Degree Days 8 (Base 50)    
Moisture  
Dew Point 37 °F    
Average Humidity 53    
Maximum Humidity 87    
Minimum Humidity 18    
Precipitation  
Precipitation 0.00 in - - ()
Sea Level Pressure  
Sea Level Pressure 30.02 in    
Wind  
Wind Speed 13 mph (SSE)    
Max Wind Speed 28 mph    
Max Gust Speed 32 mph    
Visibility 10 miles    
Events      
Averages and records for this station are not official NWS values.
T = Trace of Precipitation, MM = Missing Value Source: NWS Daily Summary

Daily Weather History Graph

Daily Weather History Graph

Search for Another Location

Airport or City:

Trip Planner

Search our weather history database for the weather conditions in past years. The results will help you decide how hot, cold, wet, or windy it might be!

Date:

Astronomy

Apr. 01, 2013 Rise Set
Actual Time 6:39 AM MDT 7:13 PM MDT
Civil Twilight 6:13 AM MDT 7:38 PM MDT
Nautical Twilight 5:44 AM MDT 8:08 PM MDT
Astronomical Twilight 5:13 AM MDT 8:39 PM MDT
Moon 12:12 AM MDT (4/1) 10:39 AM MDT (4/1)
Length of Visible Light 13h 25m
Length of Day
12h 34m
Waning Gibbous, 66% of the Moon is Illuminated
Apr 1
Waning Gibbous
Apr 2
Last Quarter
Apr 10
New
Apr 18
First Quarter
Apr 25
Full

Hourly Weather History & Observations

Time (MDT) Temp. Windchill Dew Point Humidity Pressure Visibility Wind Dir Wind Speed Gust Speed Precip Events Conditions
12:15 AM 50.0 °F - 35.6 °F 58% 30.05 in 10.0 mi South 9.2 mph - N/A   Clear
12:35 AM 51.8 °F - 35.6 °F 54% 30.05 in 10.0 mi South 11.5 mph - N/A   Clear
12:55 AM 50.0 °F - 33.8 °F 54% 30.06 in 10.0 mi South 9.2 mph - N/A   Clear
1:15 AM 48.2 °F - 35.6 °F 62% 30.05 in 10.0 mi South 8.1 mph - N/A   Clear
1:35 AM 48.2 °F - 35.6 °F 62% 30.05 in 10.0 mi SSW 9.2 mph - N/A   Clear
2:15 AM 48.2 °F - 35.6 °F 62% 30.05 in 10.0 mi SSW 9.2 mph - N/A   Clear
2:35 AM 46.4 °F 41.5 °F 35.6 °F 66% 30.05 in 10.0 mi SSW 10.4 mph - N/A   Clear
2:55 AM 48.2 °F - 35.6 °F 62% 30.04 in 10.0 mi SSW 11.5 mph - N/A   Clear
3:15 AM 48.2 °F - 35.6 °F 62% 30.04 in 10.0 mi SSW 10.4 mph - N/A   Clear
3:35 AM 48.2 °F - 37.4 °F 66% 30.04 in 10.0 mi SSW 11.5 mph - N/A   Clear
3:55 AM 48.2 °F - 37.4 °F 66% 30.04 in 10.0 mi SSW 11.5 mph - N/A   Clear
4:15 AM 46.4 °F 41.9 °F 35.6 °F 66% 30.04 in 10.0 mi SW 9.2 mph - N/A   Clear
4:35 AM 46.4 °F 41.9 °F 35.6 °F 66% 30.04 in 10.0 mi SW 9.2 mph - N/A   Clear
4:55 AM 44.6 °F 40.7 °F 35.6 °F 71% 30.04 in 10.0 mi SW 6.9 mph - N/A   Clear
5:15 AM 44.6 °F 39.7 °F 35.6 °F 71% 30.04 in 10.0 mi SW 9.2 mph - N/A   Clear
5:35 AM 44.6 °F 40.2 °F 35.6 °F 71% 30.05 in 10.0 mi SW 8.1 mph - N/A   Clear
5:55 AM 42.8 °F 38.0 °F 33.8 °F 70% 30.05 in 10.0 mi SSW 8.1 mph - N/A   Clear
6:15 AM 44.6 °F 40.7 °F 35.6 °F 71% 30.05 in 10.0 mi South 6.9 mph - N/A   Clear
6:35 AM 44.6 °F 40.7 °F 35.6 °F 71% 30.05 in 10.0 mi South 6.9 mph - N/A   Clear
7:15 AM 46.4 °F 44.3 °F 37.4 °F 71% 30.06 in 10.0 mi SSE 4.6 mph - N/A   Clear
7:35 AM 48.2 °F - 39.2 °F 71% 30.07 in 10.0 mi South 4.6 mph - N/A   Clear
7:55 AM 51.8 °F - 41.0 °F 67% 30.07 in 10.0 mi SSW 5.8 mph - N/A   Clear
8:15 AM 53.6 °F - 42.8 °F 67% 30.07 in 10.0 mi SSW 9.2 mph - N/A   Clear
8:35 AM 55.4 °F - 42.8 °F 63% 30.07 in 10.0 mi SW 8.1 mph - N/A   Clear
8:55 AM 59.0 °F - 44.6 °F 59% 30.07 in 10.0 mi SW 15.0 mph - N/A   Clear
9:15 AM 60.8 °F - 44.6 °F 55% 30.07 in 10.0 mi SSW 12.7 mph - N/A   Clear
9:35 AM 62.6 °F - 44.6 °F 52% 30.06 in 10.0 mi SW 18.4 mph - N/A   Clear
10:15 AM 66.2 °F - 46.4 °F 49% 30.05 in 10.0 mi SW 13.8 mph - N/A   Clear
10:35 AM 69.8 °F - 46.4 °F 43% 30.04 in 10.0 mi SSW 15.0 mph 21.9 mph N/A   Clear
10:55 AM 73.4 °F - 44.6 °F 36% 30.04 in 10.0 mi WSW 20.7 mph 24.2 mph N/A   Clear
11:15 AM 73.4 °F - 39.2 °F 29% 30.03 in 10.0 mi SW 16.1 mph 24.2 mph N/A   Clear
11:35 AM 75.2 °F - 35.6 °F 24% 30.03 in 10.0 mi SW 17.3 mph 23.0 mph N/A   Clear
12:15 PM 77.0 °F - 35.6 °F 22% 30.02 in 10.0 mi WSW 18.4 mph 24.2 mph N/A   Clear
12:35 PM 77.0 °F - 33.8 °F 21% 30.02 in 10.0 mi West 15.0 mph 21.9 mph N/A   Clear
12:55 PM 78.8 °F - 33.8 °F 20% 30.01 in 10.0 mi WSW 12.7 mph 20.7 mph N/A   Clear
1:15 PM 77.0 °F - 30.2 °F 18% 30.01 in 10.0 mi WNW 11.5 mph 18.4 mph N/A   Clear
1:35 PM 75.2 °F - 39.2 °F 27% 30.01 in 10.0 mi NNE 20.7 mph 29.9 mph N/A   Clear
2:15 PM 75.2 °F - 39.2 °F 27% 30.00 in 10.0 mi NNE 18.4 mph 25.3 mph N/A   Clear
2:35 PM 75.2 °F - 41.0 °F 29% 29.99 in 10.0 mi NE 18.4 mph - N/A   Clear
2:55 PM 75.2 °F - 41.0 °F 29% 29.98 in 10.0 mi NE 21.9 mph 26.5 mph N/A   Clear
3:15 PM 75.2 °F - 39.2 °F 27% 29.97 in 10.0 mi NE 18.4 mph 24.2 mph N/A   Clear
3:35 PM 73.4 °F - 41.0 °F 31% 29.97 in 10.0 mi NE 20.7 mph 28.8 mph N/A   Clear
3:55 PM 73.4 °F - 41.0 °F 31% 29.96 in 10.0 mi NE 21.9 mph 28.8 mph N/A   Clear
4:15 PM 73.4 °F - 41.0 °F 31% 29.95 in 10.0 mi ENE 24.2 mph 28.8 mph N/A   Clear
4:35 PM 71.6 °F - 39.2 °F 31% 29.95 in 10.0 mi NE 27.6 mph 32.2 mph N/A   Clear
4:55 PM 71.6 °F - 39.2 °F 31% 29.94 in 10.0 mi NE 24.2 mph 27.6 mph N/A   Clear
5:15 PM 69.8 °F - 41.0 °F 35% 29.94 in 10.0 mi ENE 24.2 mph 31.1 mph N/A   Clear
5:35 PM 68.0 °F - 41.0 °F 37% 29.94 in 10.0 mi NE 25.3 mph 28.8 mph N/A   Clear
5:55 PM 64.4 °F - 41.0 °F 42% 29.94 in 10.0 mi NE 23.0 mph 29.9 mph N/A   Clear
6:15 PM 60.8 °F - 39.2 °F 45% 29.94 in 10.0 mi NE 26.5 mph 32.2 mph N/A   Clear
6:35 PM 57.2 °F - 39.2 °F 51% 29.95 in 10.0 mi NE 21.9 mph 32.2 mph N/A   Clear
6:55 PM 55.4 °F - 37.4 °F 51% 29.96 in 10.0 mi NE 26.5 mph 31.1 mph N/A   Clear
7:15 PM 53.6 °F - 35.6 °F 51% 29.97 in 10.0 mi NE 25.3 mph - N/A   Clear
7:55 PM 48.2 °F - 35.6 °F 62% 29.98 in 10.0 mi NE 23.0 mph 26.5 mph N/A   Clear
8:15 PM 46.4 °F 39.0 °F 33.8 °F 62% 30.00 in 10.0 mi NE 19.6 mph 26.5 mph N/A   Scattered Clouds
8:35 PM 46.4 °F 38.7 °F 33.8 °F 62% 30.01 in 10.0 mi NE 20.7 mph 26.5 mph N/A   Overcast
8:55 PM 44.6 °F 36.9 °F 33.8 °F 66% 30.02 in 10.0 mi NNE 18.4 mph - N/A   Overcast
9:15 PM 44.6 °F 36.4 °F 32.0 °F 61% 30.03 in 10.0 mi NNE 20.7 mph - N/A   Overcast
9:35 PM 42.8 °F 33.5 °F 32.0 °F 66% 30.04 in 10.0 mi NNE 23.0 mph - N/A   Overcast
9:55 PM 42.8 °F 34.3 °F 32.0 °F 66% 30.04 in 10.0 mi NE 19.6 mph 27.6 mph N/A   Overcast
10:15 PM 41.0 °F 31.4 °F 32.0 °F 70% 30.05 in 10.0 mi NE 21.9 mph 27.6 mph N/A   Overcast
10:35 PM 41.0 °F 31.4 °F 32.0 °F 70% 30.05 in 9.0 mi NE 21.9 mph - N/A   Overcast
10:55 PM 39.2 °F 28.7 °F 32.0 °F 75% 30.05 in 5.0 mi NE 23.0 mph - N/A   Overcast
11:15 PM 37.4 °F 26.6 °F 33.8 °F 87% 30.06 in 5.0 mi NE 21.9 mph - N/A   Overcast
11:35 PM 37.4 °F 26.9 °F 32.0 °F 81% 30.04 in 5.0 mi NE 20.7 mph - N/A   Overcast
11:55 PM 37.4 °F 27.5 °F 32.0 °F 81% 30.04 in 3.0 mi NE 18.4 mph 23.0 mph N/A   Overcast